Location: ???? ?????????
(31.1304°N, 31.7111°E)
Time: 18:54:30
(UTC+00:00)

ATLAS 2AS CENTAUR R/B - Pass Details

Date: 29 October 2020
Orbit: 939 x 1273 km, 63.7° (Epoch: 23 November)

Event Time Altitude Azimuth Distance (km) Brightness Sun altitude
Rises 16:31:11 0° 345° (NNW) 4,102 5.9 -18.6°
Reaches altitude 10° 16:35:36 10° 8° (N) 3,066 5.0 -19.5°
Enters shadow 16:38:50 15° 34° (NE) 2,674 4.4 -20.2°
